Погода в Успенке

Россия / Астраханская область     48°12′05″N   46°15′56″E
темп.,
°C
ветер,
м/с
пор.,
м/с
влажн.,
%
обл.,
%
осадки,
мм/ч
давл.,
гПа
погр.,
м
16 сентября, чт
чт1601:00+15с47370 0.0 1013155
04:00+13с33400 0.0 101326
07:00+12сз33410 0.0 101450
10:00+18ссз45300 0.0 1014860
13:00+21ссз56240 0.0 10141588
16:00+21ссз77235 0.0 10131960
19:00+17ссз7103017 0.0 1014486
22:00+13ссв36405 0.0 1017133
17 сентября, пт
пт1701:00+12ссв35403 0.0 101871
04:00+10с34490 0.0 101859
07:00+9ссв34600 0.0 101973
10:00+14ссв23420 0.0 1019803
13:00+18ссв22320 0.0 10181467
16:00+19с222678 0.0 10171725
19:00+16св33334 0.0 101722
22:00+14в23401 0.0 101815
18 сентября, сб
сб1801:00+13юв33432 0.0 101833
04:00+12ю34465 0.0 101755
07:00+11ю34495 0.0 101850
10:00+18юз222843 0.0 1018523
13:00+22ссз112371 0.0 10172184
16:00+21с3224100 0.0 10171133
19:00+19ссв4629100 0.0 1018190
22:00+16св584189 0.0 1019251
19 сентября, вс
вс1901:00+15всв594619 0.0 1019205
04:00+14в4847100 0.0 1019141
07:00+13вюв334793 0.0 102056
10:00+19ююв454288 0.0 1020703
13:00+23юв662377 0.0 10201891
16:00+24юв772392 0.0 10182413
19:00+21вюв61033100 0.0 1018337
22:00+19ююв71237100 0.0 1019686
20 сентября, пн
пн2001:00+17юв71144100 0.0 1018663
04:00+17юв71339100 0.0 1017699
07:00+17юв81441100 0.0 1017706
10:00+19юв91334100 0.0 1017808
13:00+19ююв71035100 0.0 1017885
16:00+20юв81235100 0.1 1015788
19:00+20юв81547100 0.0 1014531
22:00+20ююв7125099 0.0 1015518